Location: Pella
(41.4080°N, 92.9160°W)
Time: 00:56:12
(UTC-05:00)

Iridium 91 - Visible Passes

Search period start: 26 October 2014 00:00
Search period end: 04 November 2014 23:00
Orbit: 775 x 780 km, 86.4° (Epoch: 25 October)

Date Brightness Start Highest point End Pass type
(mag) Time Alt. Az. Time Alt. Az. Time Alt. Az.
29 Oct 8.6 06:49:32 10° NE 06:51:28 12° ENE 06:53:24 10° E visible
31 Oct 7.8 20:27:23 12° N 20:27:23 12° N 20:27:42 10° N visible
01 Nov 8.3 06:48:24 10° NNE 06:51:49 17° ENE 06:55:13 10° ESE visible
01 Nov 7.3 19:44:28 10° SSE 19:53:05 14° NNE 19:53:51 10° NNE visible
01 Nov 8.1 21:25:35 10° SW 21:33:28 14° NNW 21:34:15 10° NNW visible
02 Nov 6.7 18:12:14 10° SE 18:17:35 17° NE 18:19:33 10° NE visible
02 Nov 6.4 19:51:12 10° SSW 19:56:12 47° W 20:01:14 10° N visible
03 Nov 7.3 17:41:55 10° E 17:42:45 10° ENE 17:43:35 10° ENE visible
03 Nov 5.4 19:17:25 10° S 19:22:37 87° W 19:27:51 10° N visible
04 Nov 8.0 05:47:53 10° NNE 05:52:07 25° ENE 05:56:20 10° SE visible
04 Nov 5.6 18:44:09 10° SSE 18:49:09 51° E 18:54:11 10° NNE visible
04 Nov 8.0 20:26:37 10° WSW 20:30:11 19° WNW 20:33:47 10° NNW visible
